National Oceanic Atmosphere Administration National Weather Service Headquarters National Weather Service Headquarters
NOAA logo WFO Anchorage Scalable transition graphic NWS logo
Transition from title bar to navgation bar   Aviation Weather 23 AKST 
blankspace Home   |   Mobile   |   Social Media   |   Mesonet   |   Surface Map   |   Radar   |   Submit Storm Reports   |   News =08 GMT 

LocalForecast by City, St or Zip Code

spacer

Forecasts/Products
  Public
  Forecast Discussion
    - With Glossary
  Aviation
  Marine
  Hydrology(RFC)
  Rivers & Lakes AHPS
  Ice Desk
  TV Weather
  Fire Weather
  Avalanche
  Travel 511
  Graphical
  xml logo RSS Feeds
  Marine FTPMail

spacer

Data
  Mesonet
  Model Graphics
  Local Model
  Observations
  Marine Obs
  Satellite/Radar
  Vent Factor
  Soaring Index
  Weather Links

spacer

Climate
  PAFC Climate
  Interactive Climate
  PAFC Records
  Local
  National
  More

spacer

Outreach
  About Us
  Community Outreach
  Kids' Page
  Tour/Speaker Request
  Weather Classroom
  Social Media

spacer

Reports
  COOP Observers
  Local Storm Reports
  Spotter Page
  Submit a Storm Report

spacer

Miscellaneous
  Archived Alaska Weather Stories
  Student Career Opportunities
  Research Papers

spacer

Print Friendly/
Low Bandwidth

  Public Forecasts
  Marine Forecasts

spacer

Contact Us
  mailto pafcweb

spacer

Facebook Follow the National Weather Service in Alaska on Twitter
USA.gov is the U.S. government's official web portal to all federal, state and local government web resources and services.


 ICAO ID:   AAWU Graphics

Internet access to TAFs and METAR observations is for planning purposes only. We can not guarantee the timeliness of internet products. Before flying please get a formal pilot briefing (1-800-992-7433) and ALWAYS file a Flight Plan!Pilot briefings are provided to licensed aircraft pilots, ONLY! Others may not use the above number to obtain weather information.

Check out the Key to TAFs and METARs for help with decoding the information.

A 12 hour summary of TAFs can be found here.

PAEN TAF
PAEN 010627Z 0106/0206  06006KT 3SM BR BKN004 OVC012
      TEMPO 0106/0109 6SM BR OVC020
     FM011200 03006KT 1SM BR BKN006
     FM012100 03010KT P6SM VCFG FEW010=


METAR PAEN 010753Z AUTO 01004KT 10SM OVC007 M01/M02 A3043=
METAR PAEN 010653Z AUTO 03006KT 10SM OVC006 M01/M02 A3040=
SPECI PAEN 010646Z AUTO 03007KT 10SM OVC006 M01/M02 A3040 RMK AO2 CIG
     004V009 T10111017 TSNO=
SPECI PAEN 010618Z AUTO 36007KT 10SM BKN004 OVC011 M02/M02 A3039 RMK AO2
     T10171022 TSNO=
SPECI PAEN 010610Z AUTO 35009KT 10SM SCT004 OVC011 M02/M02 A3038 RMK AO2
     T10171022 TSNO=
METAR PAEN 010553Z AUTO 00000KT 10SM OVC012 M01/M01 A3037=
METAR PAEN 010453Z 06005KT 10SM OVC012 M01/M02 A3036 RMK AO2 SLP282
     I1001 T10111017=
METAR PAEN 010453Z 06005KT 10SM OVC012 M01/M02 A3036=
PAEN 010450Z 05005KT 10SM OVC012 M01/M02 A3035 RMK AO2 I1001=
PAEN 010450Z 05005KT 10SM OVC012 M01/M02 A3035=


National Weather Service
Anchorage Forecast Office
6930 Sand Lake Road
Anchorage, Ak 99502
(907) 266-5105 M-F/7-5pm
About Us
Career Opportunities
Glossary
Disclaimer
Privacy Policy
Credits
Alaska Weather Information Line:
1-800-472-0391